Location: Gleizolles
(44.4833°N, 6.7667°E)
Time: 16:14:33
(UTC+00:00)

Tiros 1 - Pass Details

Date: 04 July 2024
Orbit: 624 x 656 km, 48.4° (Epoch: 13 July)

Event Time Altitude Azimuth Distance (km) Brightness Sun altitude
Rises 22:45:34 0° 289° (WNW) 2,904 10.9 -21.7°
Reaches altitude 10° 22:47:55 10° 292° (WNW) 1,996 10.1 -21.8°
Maximum altitude 22:52:28 64° 14° (NNE) 692 7.4 -22.0°
Enters shadow 22:55:33 20° 92° (E) 1,445 8.8 -22.1°
Drops below altitude 10° 22:57:02 10° 97° (E) 1,999 - -22.1°
Sets 22:59:22 0° 100° (E) 2,909 - -22.2°
